This demonstration page uses our WeatherBlox Daily Observations layout. Learn more.

41.55636, -103.73856

Hourly Observations for April 27, 2019

Temp ( °F °C ) Dew Point ( °F °C ) Humidity (%) Winds ( mph kmh ) Pressure ( in mb ) Visibility ( mi km ) Precip ( " mm )
12:51 am 00:51 Mostly Cloudy 48 9 41 5 76 76 N 14 22 29.8 1009 10 16.09344 0 0
12:53 am 00:53 Mostly Cloudy 48 8.9 39 3.9 71 71 N 15 24 29.71 1006 10 16.09344 0 0
1:45 am 01:45 Cloudy 44 6.7 37 2.8 76 76 NNW 12 19 29.83 1010 10 16.09344 0 0
1:53 am 01:53 Cloudy 44 6.7 37 2.8 76 76 NW 9 15 29.74 1007 10 16.09344 0 0
2:43 am 02:43 Cloudy 47 8.3 41 5 80 80 NW 15 24 29.85 1011 10 16.09344 0 0
2:53 am 02:53 Cloudy 48 8.9 42 5.6 80 80 WNW 15 24 29.77 1008 10 16.09344 0 0
3:37 am 03:37 Cloudy 47 8.3 40 4.4 77 77 WNW 17 28 29.88 1012 10 16.09344 0 0
3:53 am 03:53 Cloudy 47 8.3 40 4.4 77 77 NW 22 35 29.83 1010 10 16.09344 0 0
4:53 am 04:53 Cloudy 45 7.2 39 3.9 80 80 NW 15 24 29.85 1011 10 16.09344 0 0
5:53 am 05:53 Clear 42 5.6 37 2.8 82 82 WNW 12 19 29.88 1012 10 16.09344 0 0
6:53 am 06:53 Sunny 43 6.1 37 2.8 80 80 WNW 12 19 29.94 1014 10 16.09344 0 0
7:53 am 07:53 Sunny 47 8.3 38 3.3 71 71 NW 15 24 29.94 1014 10 16.09344 0 0
8:53 am 08:53 Sunny 50 10 35 1.7 57 57 NNW 17 28 29.94 1014 10 16.09344 0 0
9:53 am 09:53 Sunny 53 11.7 36 2.2 52 52 NNW 14 22 29.91 1013 10 16.09344 0 0
10:53 am 10:53 Partly Cloudy 55 12.8 36 2.2 49 49 NNW 17 28 29.91 1013 10 16.09344 0 0
11:53 am 11:53 Mostly Sunny 57 13.9 35 1.7 44 44 NNW 8 13 29.88 1012 10 16.09344 0 0
12:53 pm 12:53 Sunny 59 15 35 1.7 41 41 NW 12 19 29.85 1011 10 16.09344 0 0
1:53 pm 13:53 Sunny 60 15.6 34 1.1 38 38 NNE 8 13 29.83 1010 10 16.09344 0 0
2:53 pm 14:53 Sunny 60 15.6 33 0.6 36 36 VRB 3 6 29.8 1009 10 16.09344 0 0
3:53 pm 15:53 Sunny 61 16.1 34 1.1 36 36 SE 5 7 29.77 1008 10 16.09344 0 0
4:53 pm 16:53 Sunny 62 16.7 36 2.2 38 38 SE 12 19 29.74 1007 10 16.09344 0 0
5:53 pm 17:53 Sunny 62 16.7 36 2.2 38 38 S 15 24 29.74 1007 10 16.09344 0 0
6:53 pm 18:53 Partly Cloudy 60 15.6 37 2.8 42 42 SSE 16 26 29.71 1006 10 16.09344 0 0
7:53 pm 19:53 Clear 56 13.3 38 3.3 51 51 SE 16 26 29.68 1005 10 16.09344 0 0
8:53 pm 20:53 Clear 54 12.2 37 2.8 53 53 SE 21 33 29.68 1005 10 16.09344 0 0
9:53 pm 21:53 Clear 54 12.2 35 1.7 49 49 SE 18 30 29.71 1006 10 16.09344 0 0
10:53 pm 22:53 Clear 51 10.6 35 1.7 54 54 ESE 17 28 29.71 1006 10 16.09344 0 0
11:53 pm 23:53 Clear 51 10.6 34 1.1 52 52 S 23 37 29.68 1005 10 16.09344 0 0

Powered by AerisWeather